Regional Weather Roundup
Issued by NWS

Home | Current Version | Previous Version | Text Only | Print | Product List | Glossary Off
Versions: 1 2 3 4 5 6 7 8 9 10 11 12 13 14 15 16 17 18 19 20 21 22 23 24 25 26 27 28 29 30 31 32 33 34 35 36 37 38 39 40 41 42 43 44 45 46 47 48 49 50

559
ASUS43 KLMK 290802
RWRKY
KENTUCKY REGIONAL WEATHER ROUNDUP
NATIONAL WEATHER SERVICE LOUISVILLE KY
400 AM EDT SUN MAY 29 2016

NOTE "FAIR" INDICATES FEW OR NO CLOUDS BELOW 12,000 FEET
WITH NO SIGNIFICANT WEATHER AND/OR OBSTRUCTIONS TO VISIBILITY.

KYZ001>023-026-027-061>063-070>075-290900-
WESTERN AND SOUTH CENTRAL KENTUCKY

CITY           SKY/WX    TMP DP  RH WIND       PRES   REMARKS
PADUCAH        CLEAR     69  64  84 S5        30.03S
HENDERSON      PTCLDY    70  63  78 SW5       30.03S
OWENSBORO      PTCLDY    69  67  93 SE7       30.06S
HOPKINSVILLE   NOT AVBL
BOWLING GREEN  FOG       66  65  96 CALM      30.09S VSB 3/4
GLASGOW        NOT AVBL
$$

KYZ024-025-028>034-038-045-046-053-290900-
NORTH CENTRAL KENTUCKY

CITY           SKY/WX    TMP DP  RH WIND       PRES   REMARKS
LOUISVILLE/SDF CLOUDY    68  64  87 SE3       30.07S
LOUISVILLE/LOU CLOUDY    71  63  75 CALM      30.08S
FORT KNOX      CLOUDY    67  65  92 S2        30.07S
$$

KYZ035>037-039>044-047>052-055>060-089>105-290900-
NORTHEAST KENTUCKY

CITY           SKY/WX    TMP DP  RH WIND       PRES   REMARKS
LEXINGTON      CLOUDY    68  62  81 SE6       30.11S
COVINGTON      CLOUDY    68  63  84 S5        30.09
FRANKFORT      PTCLDY    68  62  81 CALM      30.09S
$$

KYZ054-064>069-076>088-106>120-290900-
SOUTHEAST KENTUCKY

CITY           SKY/WX    TMP DP  RH WIND       PRES   REMARKS
JACKSON        CLOUDY    67  64  90 S3        30.14S
LONDON         MOCLDY    66  63  90 CALM      30.13F
SOMERSET       NOT AVBL
MIDDLESBORO    MOCLDY    64  63  98 CALM      30.15S
MONTICELLO     CLOUDY    64  63  96 W9        30.14F
$$





USA.gov is the U.S. government's official web portal to all federal, state and local government web resources and services.